Terminal Aerodrome Forecast
Issued by NWS La Crosse, WI

Current Version | Previous Version | Text Only | Print | Product List | Glossary On
Versions: 1 2 3 4 5 6 7 8 9 10 11 12 13 14 15 16 17 18 19 20 21 22 23 24 25 26 27 28 29 30 31 32 33 34 35 36 37 38 39 40 41 42 43 44 45 46 47 48
000
FTUS43 KARX 222322
TAFLSE
TAF
KLSE 222322Z 2300/2324 VRB03KT P6SM FEW035
     FM230800 VRB03KT 2SM BR OVC006
      TEMPO 2309/2313 1/2SM FG OVC003
     FM231500 09005KT P6SM BKN012
     FM231700 09007KT P6SM SCT035=

USA.gov is the U.S. government's official web portal to all federal, state and local government web resources and services.